Regional Weather Roundup
Issued by NWS State College, PA

Home | Current Version | Previous Version | Text Only | Print | Product List | Glossary On
Versions: 1 2 3 4 5 6 7 8 9 10 11 12 13 14 15 16 17 18 19 20 21 22 23 24 25 26 27 28 29 30 31 32 33 34 35 36 37 38 39 40 41 42 43 44 45 46 47 48 49 50
000
ASUS41 KCTP 192303
RWRCTP

REGIONAL WEATHER ROUNDUP
NATIONAL WEATHER SERVICE STATE COLLEGE PA
600 PM EST FRI DEC 19 2014

Note: "fair" indicates few or no clouds below 12,000 feet with no
significant weather and/or obstructions to visibility.

* = STATION THAT DOES NOT REPORT PRECIPITATION /E.G. RAIN...SNOW...ETC/
    THUNDER OR FOG.

PAZ002>004-007>009-013>016-020>023-029>032-200000-
WESTERN PENNSYLVANIA

CITY           SKY/WX    TMP DP  RH WIND       PRES   REMARKS
ERIE           MOCLDY    31  19  61 W8        30.25R
MEADVILLE      PTCLDY    25  17  72 NW3       30.22R
FRANKLIN*      CLOUDY    27  18  69 CALM      30.22R
NEW CASTLE       N/A     30  21  69 CALM      30.25S
BEAVER COUNTY  CLOUDY    30  21  69 NW3       30.22S
BUTLER*        CLOUDY    28  21  74 CALM      30.23S
PITTSBURGH INT CLOUDY    30  22  72 NW6       30.22S
PITTSBURGH     CLOUDY    30  18  60 W5        30.21R
INDIANA*       CLOUDY    28  21  74 W8        30.24R
LATROBE        CLOUDY    34  25  69 W7        30.23S
WASHINGTON CO* NOT AVBL
$$

PAZ004>006-010>012-017>019-024>028-033>037-041-042-045-046-049>053-200000-
CENTRAL PENNSYLVANIA

CITY           SKY/WX    TMP DP  RH WIND       PRES   REMARKS
BRADFORD       CLOUDY    22  17  81 W8        30.15R WCI  12
DUBOIS         MOCLDY    25  18  74 W6        30.16R
CLEARFIELD     CLOUDY    28  19  69 NW6       30.17R
JOHNSTOWN      CLOUDY    24  18  77 NW8       30.12S
ALTOONA        MOCLDY    28  20  71 NW13      30.17R
STATE COLLEGE  MOCLDY    30  19  64 NW7       30.17R
WILLIAMSPORT   CLOUDY    34  20  56 NW9       30.18R
SELINSGROVE    CLOUDY    35  21  56 NW10      30.19R
FT INDIANTOWN  MOCLDY    35  20  55 W5        30.17R
CAPITAL CITY   PTCLDY    34  21  59 W8        30.18R
HARRISBURG     PTCLDY    34  20  56 NW7       30.17R
YORK           CLEAR     33  21  61 NW3       30.17R
$$

PAZ038>040-043-044-047-048-054-055-060>062-067>071-200000-
EASTERN PENNSYLVANIA

CITY           SKY/WX    TMP DP  RH WIND       PRES   REMARKS
SCRANTON       CLOUDY    30  20  66 N8        30.14R
MOUNT POCONO   CLOUDY    25  18  74 NW14G21   30.05R WCI  13
ALLENTOWN      CLOUDY    33  20  58 N16       30.16R
QUAKERTOWN*    CLEAR     32  21  64 N5        30.14R
READING        MOCLDY    35  21  56 NW13      30.15R
LANCASTER      CLEAR     33  21  61 NW9       30.16R
COATESVILLE    CLEAR     36  25  64 NW12      30.13R
POTTSTOWN      CLEAR     34  20  56 N7        30.15R
BLUE BELL      CLEAR     36  23  60 CALM      30.13R
DOYLESTOWN     CLEAR     30  21  69 N6        30.13R
WILLOW GROVE   NOT AVBL
NORTH PHILA    CLEAR     35  20  54 N9        30.16R
PHILADELPHIA   CLEAR     39  21  48 NW9       30.16R
$$


USA.gov is the U.S. government's official web portal to all federal, state and local government web resources and services.